Regional Weather Roundup
Issued by NWS

Home | Current Version | Previous Version | Text Only | Print | Product List | Glossary On
Versions: 1 2 3 4 5 6 7 8 9 10 11 12 13 14 15 16 17 18 19 20 21 22 23 24 25 26 27 28 29 30 31 32 33 34 35 36 37 38 39 40 41 42 43 44 45 46 47 48 49 50
000
ASUS45 KABQ 202310
RWRNM
NEW MEXICO REGIONAL WEATHER ROUNDUP
NATIONAL WEATHER SERVICE ALBUQUERQUE NM
500 PM MDT THU JUL 20 2017

NOTE: "FAIR" MEANS FEW OR NO CLOUDS BELOW 12,000 FEET AGL WITH NO
       SIGNIFICANT WEATHER OR OBSTRUCTIONS TO VISION.

      THIS PRODUCT IS RELEASED AS TWO VERSIONS.  ONE VERSION NEAR
      THE TOP OF THE HOUR CONTAINING PRELIMINARY DATA FROM ALBUQUERQUE
      AND OTHER STATIONS.  A FINAL VERSION WITH ADDITIONAL DATA IS
      ISSUED ABOUT 10 MINUTES AFTER THE HOUR.

NMZ501-503-504-510>518-210000-
NORTHWEST PLATEAU/NORTHCENTRAL MOUNTAINS

CITY           SKY/WX    TMP DP  RH WIND       PRES   REMARKS
FARMINGTON     FAIR      88  49  25 W6        30.10F
LOS ALAMOS     FAIR      82  43  25 SW15G25   30.30F
SANTA FE       FAIR      86  50  28 SW12      30.22F
TAOS           FAIR      86  45  23 SW9G23    30.26F
ANGEL FIRE     FAIR      80  39  23 SW7       30.37F

$$
NMZ402-403-502-505>509-210000-
WESTCENTRAL MOUNTAINS/SOUTHWEST MOUNTAINS

CITY           SKY/WX    TMP DP  RH WIND       PRES   REMARKS
GALLUP         FAIR      72  56  57 E5        30.23F
GRANTS         FAIR      84  45  25 E10G22    30.23F
SILVER CITY    FAIR      84  55  37 SE10G21   30.19S

$$
NMZ407-409-411-412-210000-
SOUTHERN DESERTS

CITY           SKY/WX    TMP DP  RH WIND       PRES   REMARKS
DEMING         PTSUNNY   87  57  35 VRB5      30.09F
LAS CRUCES     FAIR      89  51  27 E7        30.12F
HOLLOMAN AFB   TSTM      93  57  29 SE16G23   30.10F
ALAMOGORDO     PTSUNNY   86  57  37 SE18      30.12R THUNDER
T OR C         FAIR      87  56  34 SW10G21   30.12F

$$
NMZ519>523-210000-
CENTRAL VALLEYS/CENTRAL HIGHLANDS

CITY           SKY/WX    TMP DP  RH WIND       PRES   REMARKS
ALBUQUERQUE    PTSUNNY   87  50  27 SW16G22   30.16F
DOUBLE EAGLE   PTSUNNY   90  52  27 S17       30.20F
MORIARTY ARPT  TSTM      72  60  65 S9G29     30.27R
CLINES CORNERS FAIR      78  48  34 SW9       30.31F
BELEN          FAIR      91  47  22 S18G26    30.14F
SOCORRO        FAIR      86  52  30 S16       30.14F

$$
NMZ524>526-539-540-210000-
SOUTHCENTRAL MOUNTAINS

CITY           SKY/WX    TMP DP  RH WIND       PRES   REMARKS
RUIDOSO        FAIR      68  57  68 CALM      30.33F

$$
NMZ527>531-210000-
NORTHEAST HIGHLANDS/NORTHEAST PLAINS

CITY           SKY/WX    TMP DP  RH WIND       PRES   REMARKS
LAS VEGAS      FAIR      87  40  19 S14G23    30.26F
RATON          FAIR      91  35  13 S10G24    30.18F
CLAYTON        FAIR      94  44  17 S12       30.10F

$$
NMZ532>537-210000-
EASTCENTRAL PLAINS

CITY           SKY/WX    TMP DP  RH WIND       PRES   REMARKS
SANTA ROSA     FAIR      93  46  20 S9G22     30.11F
TUCUMCARI      FAIR      99  46  16 S14G20    30.04F HX  95
CANNON AFB     FAIR      94  49  21 S12       30.11F
CLOVIS AIRPORT FAIR      95  51  22 S15       30.11F

$$
NMZ028-029-538-210000-
SOUTHEAST PLAINS

CITY           SKY/WX    TMP DP  RH WIND       PRES   REMARKS
ROSWELL        FAIR      95  52  23 S13G18    30.06F
ARTESIA        FAIR      95  54  24 S14G21    30.06F
CARLSBAD       FAIR      95  56  26 SE13G18   30.03F
HOBBS          MOSUNNY   93  52  24 SE13      30.09F


$$



USA.gov is the U.S. government's official web portal to all federal, state and local government web resources and services.